Zurück zum Katalog

COSMOS 1275 DEB

AktivPO
NORAD 42164·DEBRIS·🇷🇺 Russia

Gestartet Jun 4, 1981 von Plesetsk Cosmodrome

Loading…

Nächste Überflüge (nächste 24 Stunden)

TLE

AktuellSource: Space-Track

Epoche: Sep 13, 2026, 07:29 UTC

1 42164U 81053SC  26256.31248698  .00006145  00000-0  12331-2 0  9994
2 42164  82.9142 262.6107 0021345  94.4182 265.9461 14.61440697668456

Verfolge COSMOS 1275 DEB in Echtzeit mit AllMySat

Download on the App Store